TimeEDT,TemperatureF,Dew PointF,Humidity,Sea Level PressureIn,VisibilityMPH,Wind Direction,Wind SpeedMPH,Gust SpeedMPH,PrecipitationIn,Events,Conditions,WindDirDegrees,DateUTC
12:54 AM,64.0,55.9,75,30.09,10.0,ENE,9.2,-,N/A,,Overcast,60,2011-10-11 04:54:00
1:54 AM,64.0,55.9,75,30.09,10.0,NE,6.9,-,N/A,,Overcast,50,2011-10-11 05:54:00
2:45 AM,62.6,55.4,77,30.10,10.0,ENE,6.9,-,0.00,Rain,Light Rain,60,2011-10-11 06:45:00
2:54 AM,63.0,57.0,81,30.08,10.0,NE,6.9,-,0.00,Rain,Light Rain,50,2011-10-11 06:54:00
3:01 AM,62.6,57.2,82,30.09,10.0,NE,6.9,-,0.00,Rain,Light Rain,50,2011-10-11 07:01:00
3:54 AM,62.1,57.0,84,30.07,5.0,Calm,Calm,-,0.02,Rain,Light Rain,0,2011-10-11 07:54:00
4:54 AM,61.0,57.0,87,30.07,9.0,ENE,5.8,-,0.00,,Overcast,60,2011-10-11 08:54:00
5:54 AM,61.0,57.0,87,30.05,8.0,NNE,6.9,-,N/A,,Overcast,30,2011-10-11 09:54:00
6:54 AM,60.1,57.0,90,30.08,8.0,Calm,Calm,-,N/A,,Overcast,0,2011-10-11 10:54:00
7:54 AM,61.0,57.0,87,30.09,5.0,NE,5.8,-,N/A,,Overcast,40,2011-10-11 11:54:00
8:54 AM,62.1,57.0,84,30.09,7.0,ENE,8.1,-,N/A,,Overcast,70,2011-10-11 12:54:00
9:54 AM,62.1,57.0,84,30.08,4.0,NE,8.1,-,0.02,Rain,Light Rain,50,2011-10-11 13:54:00
10:54 AM,61.0,57.0,87,30.09,4.0,ENE,8.1,-,0.06,Rain,Rain,70,2011-10-11 14:54:00
11:32 AM,60.8,57.2,88,30.10,5.0,East,9.2,-,0.04,Rain,Light Rain,80,2011-10-11 15:32:00
11:54 AM,61.0,57.0,87,30.08,5.0,ENE,15.0,-,0.05,Rain,Light Rain,60,2011-10-11 15:54:00
12:54 PM,61.0,57.0,87,30.06,6.0,NE,13.8,-,0.02,Rain,Light Rain,50,2011-10-11 16:54:00
1:49 PM,60.8,57.2,88,30.07,1.5,ENE,11.5,-,0.07,Rain,Heavy Rain,60,2011-10-11 17:49:00
1:54 PM,60.1,55.9,86,30.05,1.5,ENE,13.8,-,0.07,Rain,Light Rain,60,2011-10-11 17:54:00
2:06 PM,60.8,55.4,82,30.06,1.5,NE,13.8,-,0.04,Rain,Heavy Rain,40,2011-10-11 18:06:00
2:13 PM,60.8,55.4,82,30.05,2.0,NE,11.5,-,0.06,Rain,Rain,40,2011-10-11 18:13:00
2:32 PM,60.8,55.4,82,30.04,3.0,NE,11.5,-,0.13,Rain,Light Rain,50,2011-10-11 18:32:00
2:38 PM,60.8,55.4,82,30.04,5.0,NNE,10.4,-,0.14,Rain,Light Rain,30,2011-10-11 18:38:00
2:48 PM,60.8,55.4,82,30.04,1.5,NE,11.5,19.6,0.15,Rain,Rain,40,2011-10-11 18:48:00
2:54 PM,59.0,55.0,87,30.03,1.5,NE,11.5,-,0.16,Rain,Rain,50,2011-10-11 18:54:00
3:07 PM,59.0,55.4,88,30.03,2.5,NE,12.7,-,0.02,Rain,Light Rain,50,2011-10-11 19:07:00
3:16 PM,59.0,55.4,88,30.03,3.0,NE,17.3,24.2,0.03,Rain,Light Rain,40,2011-10-11 19:16:00
3:54 PM,59.0,55.0,87,29.99,10.0,NE,19.6,25.3,0.04,,Overcast,40,2011-10-11 19:54:00
4:43 PM,59.0,55.4,88,30.02,1.0,NNE,12.7,21.9,0.02,Rain,Rain,30,2011-10-11 20:43:00
4:54 PM,57.9,55.0,90,30.00,1.0,NNE,12.7,19.6,0.04,Rain,Light Rain,30,2011-10-11 20:54:00
5:04 PM,57.2,55.4,94,30.01,1.0,NE,11.5,19.6,0.00,Rain,Light Rain,40,2011-10-11 21:04:00
5:36 PM,57.2,55.4,94,29.99,3.0,NNE,11.5,-,0.04,Rain,Light Rain,30,2011-10-11 21:36:00
5:54 PM,57.9,55.0,90,29.97,4.0,NNE,10.4,-,0.06,Rain,Light Rain,30,2011-10-11 21:54:00
6:24 PM,57.2,55.4,94,29.98,7.0,NE,13.8,19.6,0.00,,Light Drizzle,40,2011-10-11 22:24:00
6:54 PM,57.9,55.0,90,29.96,2.0,NE,11.5,-,0.01,,Light Drizzle,50,2011-10-11 22:54:00
6:56 PM,57.2,55.4,94,29.98,2.0,NE,11.5,-,0.00,,Light Drizzle,40,2011-10-11 22:56:00
7:03 PM,57.2,55.4,94,29.98,2.0,NE,13.8,-,0.00,,Light Drizzle,50,2011-10-11 23:03:00
7:54 PM,57.9,55.9,93,29.96,3.0,NE,12.7,19.6,0.03,Rain,Light Rain,40,2011-10-11 23:54:00
8:30 PM,57.2,55.4,94,29.96,2.5,NE,16.1,-,0.00,,Overcast,50,2011-10-12 00:30:00
8:54 PM,57.9,55.9,93,29.95,2.5,ENE,12.7,18.4,0.01,Rain,Light Rain,60,2011-10-12 00:54:00
9:54 PM,59.0,57.0,93,29.95,2.5,ENE,11.5,-,0.02,Rain,Light Rain,60,2011-10-12 01:54:00
10:21 PM,59.0,57.2,94,29.96,3.0,ENE,10.4,-,0.02,Rain,Light Rain,60,2011-10-12 02:21:00
10:54 PM,60.1,57.9,93,29.94,2.5,ENE,11.5,-,0.03,Rain,Light Rain,70,2011-10-12 02:54:00
11:54 PM,60.1,57.9,93,29.93,2.5,NE,11.5,-,0.04,Rain,Light Rain,50,2011-10-12 03:54:00